| time (UTC) | temp F | wind direction | speed MPH | gust MPH | rain 1hr in | rain 24hr in | rain mn in | humidity % | barometer mb |
| 20260906055523 | 69 | 46 | 1.0 | 4.0 | 0.00 | 0.00 | 0.00 | 81 | 1016.6 |
| 20260906055101 | 69 | 15 | 1.0 | 4.0 | 0.00 | 0.00 | 0.00 | 82 | 1016.7 |
| 20260906054524 | 69 | 1 | 1.0 | 4.0 | 0.00 | 0.00 | 0.00 | 82 | 1016.8 |
| 20260906054038 | 69 | 35 | 2.0 | 4.0 | 0.00 | 0.00 | 0.00 | 82 | 1016.8 |
| 20260906053547 | 69 | 28 | 1.0 | 6.0 | 0.00 | 0.00 | 0.00 | 82 | 1016.7 |
| 20260906053042 | 69 | 314 | 1.0 | 6.0 | 0.00 | 0.00 | 0.00 | 82 | 1016.7 |
| 20260906052533 | 69 | 15 | 2.0 | 6.0 | 0.00 | 0.00 | 0.00 | 81 | 1016.6 |
| 20260906052027 | 69 | 51 | 1.0 | 5.0 | 0.00 | 0.00 | 0.00 | 82 | 1016.6 |
| 20260906051535 | 69 | 82 | 1.0 | 3.0 | 0.00 | 0.00 | 0.00 | 81 | 1016.6 |
| 20260906051025 | 69 | 117 | 1.0 | 6.0 | 0.00 | 0.00 | 0.00 | 81 | 1016.6 |
| 20260906050535 | 69 | 1 | 1.0 | 4.0 | 0.00 | 0.00 | 0.00 | 81 | 1016.6 |
| 20260906050029 | 69 | 135 | 1.0 | 5.0 | 0.00 | 0.00 | 0.00 | 81 | 1016.6 |
| 20260906045538 | 69 | 46 | 1.0 | 6.0 | 0.00 | 0.00 | 0.00 | 82 | 1016.6 |
| 20260906045052 | 69 | 89 | 1.0 | 6.0 | 0.00 | 0.00 | 0.00 | 82 | 1016.5 |
| 20260906044539 | 69 | 124 | 1.0 | 5.0 | 0.00 | 0.00 | 0.00 | 82 | 1016.4 |
| 20260906044030 | 69 | 338 | 1.0 | 5.0 | 0.00 | 0.00 | 0.00 | 81 | 1016.3 |
| 20260906043556 | 69 | 46 | 2.0 | 5.0 | 0.00 | 0.00 | 0.00 | 82 | 1016.2 |
| 20260906043026 | 69 | 46 | 1.0 | 6.0 | 0.00 | 0.00 | 0.00 | 81 | 1016.2 |
| 20260906042524 | 69 | 39 | 2.0 | 6.0 | 0.00 | 0.00 | 0.00 | 82 | 1016.2 |
| 20260906042031 | 69 | 46 | 2.0 | 5.0 | 0.00 | 0.00 | 0.00 | 82 | 1016.1 |
| 20260906041540 | 69 | 56 | 1.0 | 4.0 | 0.00 | 0.00 | 0.00 | 82 | 1016.1 |
| 20260906041058 | 69 | 39 | 2.0 | 5.0 | 0.00 | 0.00 | 0.00 | 82 | 1016.1 |
| 20260906040522 | 69 | 72 | 2.0 | 5.0 | 0.00 | 0.00 | 0.00 | 82 | 1016.1 |
| 20260906040048 | 69 | 63 | 2.0 | 6.0 | 0.00 | 0.00 | 0.00 | 82 | 1016.1 |
| 20260906035527 | 69 | 314 | 2.0 | 6.0 | 0.00 | 0.00 | 0.00 | 82 | 1016.0 |
| 20260906035039 | 69 | 15 | 1.0 | 7.0 | 0.00 | 0.00 | 0.00 | 82 | 1015.9 |
| 20260906034524 | 69 | 9 | 2.0 | 6.0 | 0.00 | 0.00 | 0.00 | 82 | 1015.9 |
| 20260906034034 | 68 | 105 | 2.0 | 6.0 | 0.00 | 0.00 | 0.00 | 82 | 1015.9 |
| 20260906033548 | 68 | 336 | 2.0 | 6.0 | 0.00 | 0.00 | 0.00 | 81 | 1015.9 |
| 20260906033102 | 68 | 343 | 2.0 | 6.0 | 0.00 | 0.00 | 0.00 | 81 | 1015.8 |
| 20260906032554 | 68 | 82 | 2.0 | 8.0 | 0.00 | 0.00 | 0.00 | 82 | 1015.8 |
| 20260906032029 | 68 | 89 | 2.0 | 7.0 | 0.00 | 0.00 | 0.00 | 81 | 1015.9 |
| 20260906031536 | 68 | 56 | 2.0 | 7.0 | 0.00 | 0.00 | 0.00 | 81 | 1015.9 |
| 20260906031046 | 68 | 40 | 2.0 | 6.0 | 0.00 | 0.00 | 0.00 | 81 | 1015.9 |
| 20260906030534 | 68 | 46 | 1.0 | 5.0 | 0.00 | 0.00 | 0.00 | 81 | 1015.9 |
| 20260906030035 | 69 | 336 | 2.0 | 5.0 | 0.00 | 0.00 | 0.00 | 81 | 1016.0 |
| 20260906025545 | 68 | 74 | 1.0 | 5.0 | 0.00 | 0.00 | 0.00 | 81 | 1016.0 |
| 20260906025035 | 68 | 46 | 1.0 | 5.0 | 0.00 | 0.00 | 0.00 | 81 | 1015.9 |
| 20260906024545 | 69 | 35 | 2.0 | 6.0 | 0.00 | 0.00 | 0.00 | 81 | 1015.9 |
| 20260906024037 | 68 | 329 | 1.0 | 6.0 | 0.00 | 0.00 | 0.00 | 81 | 1015.9 |
| 20260906023524 | 68 | 314 | 2.0 | 6.0 | 0.00 | 0.00 | 0.00 | 81 | 1016.0 |
| 20260906023039 | 68 | 105 | 2.0 | 6.0 | 0.00 | 0.00 | 0.00 | 81 | 1016.0 |
| 20260906022525 | 68 | 1 | 1.0 | 5.0 | 0.00 | 0.00 | 0.00 | 81 | 1016.0 |
| 20260906022035 | 68 | 344 | 2.0 | 6.0 | 0.00 | 0.00 | 0.00 | 81 | 1016.1 |
| 20260906021525 | 69 | 11 | 2.0 | 10.0 | 0.00 | 0.00 | 0.00 | 81 | 1016.0 |
| 20260906021038 | 69 | 30 | 3.0 | 10.0 | 0.00 | 0.00 | 0.00 | 81 | 1016.0 |
| 20260906020523 | 69 | 72 | 2.0 | 6.0 | 0.00 | 0.00 | 0.00 | 81 | 1016.0 |
| 20260906020036 | 68 | 13 | 2.0 | 6.0 | 0.00 | 0.00 | 0.00 | 81 | 1015.9 |
| 20260906015544 | 68 | 98 | 2.0 | 7.0 | 0.00 | 0.00 | 0.00 | 81 | 1015.8 |
| 20260906015032 | 69 | 46 | 2.0 | 5.0 | 0.00 | 0.00 | 0.00 | 81 | 1015.8 |
| 20260906014541 | 69 | 321 | 2.0 | 7.0 | 0.00 | 0.00 | 0.00 | 82 | 1015.8 |
| 20260906014059 | 69 | 15 | 2.0 | 7.0 | 0.00 | 0.00 | 0.00 | 81 | 1015.8 |
| 20260906013545 | 68 | 76 | 3.0 | 6.0 | 0.00 | 0.00 | 0.00 | 81 | 1015.8 |
| 20260906013030 | 68 | 20 | 2.0 | 4.0 | 0.00 | 0.00 | 0.00 | 81 | 1015.8 |
| 20260906012530 | 69 | 135 | 2.0 | 4.0 | 0.00 | 0.00 | 0.00 | 81 | 1015.8 |
| 20260906011522 | 68 | 39 | 2.0 | 7.0 | 0.00 | 0.00 | 0.00 | 80 | 1015.8 |
| 20260906011034 | 69 | 347 | 2.0 | 7.0 | 0.00 | 0.00 | 0.00 | 81 | 1015.7 |
| 20260906010522 | 69 | 1 | 2.0 | 7.0 | 0.00 | 0.00 | 0.00 | 80 | 1015.8 |
| 20260906010055 | 69 | 142 | 3.0 | 7.0 | 0.00 | 0.00 | 0.00 | 80 | 1015.7 |
| 20260906005523 | 69 | 89 | 2.0 | 6.0 | 0.00 | 0.00 | 0.00 | 81 | 1015.7 |
| 20260906005035 | 69 | 59 | 2.0 | 6.0 | 0.00 | 0.00 | 0.00 | 81 | 1015.6 |
| 20260906004522 | 69 | 46 | 3.0 | 7.0 | 0.00 | 0.00 | 0.00 | 81 | 1015.5 |
| 20260906004034 | 69 | 1 | 2.0 | 9.0 | 0.00 | 0.00 | 0.00 | 81 | 1015.5 |
| 20260906003523 | 69 | 15 | 3.0 | 9.0 | 0.00 | 0.00 | 0.00 | 81 | 1015.4 |
| 20260906003037 | 69 | 59 | 2.0 | 11.0 | 0.00 | 0.00 | 0.00 | 81 | 1015.4 |
| 20260906002540 | 69 | 46 | 4.0 | 11.0 | 0.00 | 0.00 | 0.00 | 81 | 1015.4 |
| 20260906002031 | 69 | 40 | 2.0 | 7.0 | 0.00 | 0.00 | 0.00 | 81 | 1015.5 |
| 20260906001522 | 69 | 35 | 3.0 | 10.0 | 0.00 | 0.00 | 0.00 | 81 | 1015.5 |
| 20260906001027 | 69 | 28 | 4.0 | 10.0 | 0.00 | 0.00 | 0.00 | 81 | 1015.6 |
| 20260906000534 | 69 | 59 | 3.0 | 7.0 | 0.00 | 0.00 | 0.00 | 81 | 1015.7 |
| 20260906000026 | 69 | 119 | 3.0 | 8.0 | 0.00 | 0.00 | 0.00 | 81 | 1015.6 |
| 20260905235607 | 69 | 89 | 2.0 | 8.0 | 0.00 | 0.00 | 0.00 | 81 | 1015.6 |
| 20260905235049 | 69 | 340 | 2.0 | 6.0 | 0.00 | 0.00 | 0.00 | 80 | 1015.5 |
| 20260905234538 | 69 | 28 | 2.0 | 10.0 | 0.00 | 0.00 | 0.00 | 80 | 1015.6 |
| 20260905234031 | 69 | 331 | 3.0 | 10.0 | 0.00 | 0.00 | 0.00 | 80 | 1015.6 |
| 20260905233535 | 69 | 60 | 2.0 | 8.0 | 0.00 | 0.00 | 0.00 | 80 | 1015.6 |
| 20260905233028 | 70 | 46 | 2.0 | 11.0 | 0.00 | 0.00 | 0.00 | 79 | 1015.5 |
| 20260905232528 | 70 | 63 | 2.0 | 11.0 | 0.00 | 0.00 | 0.00 | 79 | 1015.4 |
| 20260905232034 | 70 | 49 | 2.0 | 9.0 | 0.00 | 0.00 | 0.00 | 79 | 1015.4 |
| 20260905231524 | 70 | 77 | 3.0 | 10.0 | 0.00 | 0.00 | 0.00 | 78 | 1015.3 |
| 20260905231035 | 70 | 32 | 4.0 | 10.0 | 0.00 | 0.00 | 0.00 | 78 | 1015.3 |
| 20260905230608 | 70 | 46 | 3.0 | 9.0 | 0.00 | 0.00 | 0.00 | 77 | 1015.3 |
| 20260905230025 | 70 | 135 | 3.0 | 10.0 | 0.00 | 0.00 | 0.00 | 77 | 1015.4 |
| 20260905225535 | 70 | 32 | 3.0 | 11.0 | 0.00 | 0.00 | 0.00 | 77 | 1015.2 |
| 20260905225054 | 70 | 75 | 3.0 | 11.0 | 0.00 | 0.00 | 0.00 | 77 | 1015.2 |
| 20260905224528 | 70 | 35 | 3.0 | 13.0 | 0.00 | 0.00 | 0.00 | 77 | 1015.3 |
| 20260905224040 | 71 | 42 | 5.0 | 13.0 | 0.00 | 0.00 | 0.00 | 77 | 1015.2 |
| 20260905223529 | 71 | 46 | 3.0 | 10.0 | 0.00 | 0.00 | 0.00 | 76 | 1015.2 |
| 20260905223040 | 71 | 25 | 5.0 | 12.0 | 0.00 | 0.00 | 0.00 | 78 | 1015.2 |
| 20260905222528 | 71 | 56 | 3.0 | 12.0 | 0.00 | 0.00 | 0.00 | 78 | 1015.2 |
| 20260905222044 | 71 | 63 | 3.0 | 11.0 | 0.00 | 0.00 | 0.00 | 77 | 1015.3 |
| 20260905221527 | 71 | 89 | 4.0 | 9.0 | 0.00 | 0.00 | 0.00 | 77 | 1015.3 |
| 20260905221040 | 71 | 28 | 2.0 | 9.0 | 0.00 | 0.00 | 0.00 | 76 | 1015.3 |
| 20260905220533 | 71 | 72 | 4.0 | 9.0 | 0.00 | 0.00 | 0.00 | 77 | 1015.3 |
| 20260905220040 | 71 | 53 | 3.0 | 8.0 | 0.00 | 0.00 | 0.00 | 76 | 1015.3 |
| 20260905215555 | 72 | 338 | 3.0 | 7.0 | 0.00 | 0.00 | 0.00 | 75 | 1015.2 |
| 20260905215044 | 72 | 108 | 3.0 | 9.0 | 0.00 | 0.00 | 0.00 | 77 | 1015.1 |
| 20260905214529 | 72 | 27 | 2.0 | 9.0 | 0.00 | 0.00 | 0.00 | 76 | 1015.1 |
| 20260905214109 | 72 | 46 | 2.0 | 6.0 | 0.00 | 0.00 | 0.00 | 76 | 1015.1 |
| 20260905213541 | 72 | 70 | 2.0 | 9.0 | 0.00 | 0.00 | 0.00 | 76 | 1015.1 |
| 20260905213104 | 72 | 54 | 2.0 | 8.0 | 0.00 | 0.00 | 0.00 | 78 | 1015.0 |
| 20260905212529 | 72 | 76 | 3.0 | 10.0 | 0.00 | 0.00 | 0.00 | 78 | 1015.0 |
| 20260905212029 | 72 | 28 | 3.0 | 10.0 | 0.00 | 0.00 | 0.00 | 80 | 1015.1 |
| 20260905211535 | 72 | 89 | 4.0 | 11.0 | 0.00 | 0.00 | 0.00 | 81 | 1015.1 |
| 20260905211030 | 72 | 72 | 4.0 | 11.0 | 0.00 | 0.00 | 0.00 | 81 | 1015.3 |
| 20260905210537 | 72 | 49 | 3.0 | 10.0 | 0.00 | 0.00 | 0.00 | 80 | 1015.3 |
| 20260905210030 | 72 | 46 | 3.0 | 9.0 | 0.00 | 0.00 | 0.00 | 80 | 1015.4 |
| 20260905205535 | 72 | 13 | 2.0 | 9.0 | 0.00 | 0.00 | 0.00 | 81 | 1015.4 |
| 20260905205029 | 72 | 37 | 2.0 | 7.0 | 0.00 | 0.00 | 0.00 | 81 | 1015.4 |
| 20260905204537 | 72 | 63 | 4.0 | 7.0 | 0.00 | 0.00 | 0.00 | 82 | 1015.5 |
| 20260905204028 | 72 | 89 | 2.0 | 6.0 | 0.00 | 0.00 | 0.00 | 82 | 1015.5 |
| 20260905203534 | 72 | 108 | 2.0 | 7.0 | 0.00 | 0.00 | 0.00 | 81 | 1015.5 |
| 20260905203039 | 72 | 344 | 2.0 | 9.0 | 0.00 | 0.00 | 0.00 | 82 | 1015.5 |
| 20260905202528 | 72 | 30 | 3.0 | 9.0 | 0.00 | 0.00 | 0.00 | 81 | 1015.5 |
| 20260905202046 | 73 | 32 | 2.0 | 6.0 | 0.00 | 0.00 | 0.00 | 81 | 1015.5 |
| 20260905201531 | 73 | 127 | 2.0 | 6.0 | 0.00 | 0.00 | 0.00 | 80 | 1015.4 |
| 20260905201056 | 73 | 13 | 2.0 | 7.0 | 0.00 | 0.00 | 0.00 | 81 | 1015.4 |
| 20260905200540 | 73 | 348 | 2.0 | 7.0 | 0.00 | 0.00 | 0.00 | 81 | 1015.4 |
| 20260905200032 | 73 | 100 | 3.0 | 7.0 | 0.00 | 0.00 | 0.00 | 81 | 1015.4 |
| 20260905195539 | 73 | 72 | 2.0 | 6.0 | 0.00 | 0.00 | 0.00 | 81 | 1015.4 |
| 20260905195028 | 73 | 46 | 2.0 | 9.0 | 0.00 | 0.00 | 0.00 | 80 | 1015.4 |
| 20260905194532 | 73 | 314 | 3.0 | 9.0 | 0.00 | 0.00 | 0.00 | 81 | 1015.4 |
| 20260905194026 | 73 | 46 | 2.0 | 6.0 | 0.00 | 0.00 | 0.00 | 82 | 1015.2 |
| 20260905193534 | 73 | 61 | 3.0 | 6.0 | 0.00 | 0.00 | 0.00 | 81 | 1015.2 |
| 20260905193041 | 73 | 72 | 3.0 | 8.0 | 0.00 | 0.00 | 0.00 | 82 | 1015.3 |
| 20260905192530 | 73 | 269 | 3.0 | 8.0 | 0.00 | 0.00 | 0.00 | 82 | 1015.4 |
| 20260905192049 | 73 | 39 | 3.0 | 7.0 | 0.00 | 0.00 | 0.00 | 82 | 1015.3 |
| 20260905191537 | 73 | 46 | 3.0 | 8.0 | 0.00 | 0.00 | 0.00 | 83 | 1015.4 |
| 20260905191028 | 73 | 360 | 3.0 | 8.0 | 0.00 | 0.00 | 0.00 | 83 | 1015.3 |
| 20260905190536 | 73 | 344 | 2.0 | 8.0 | 0.00 | 0.00 | 0.00 | 83 | 1015.4 |
| 20260905190046 | 73 | 37 | 3.0 | 8.0 | 0.00 | 0.00 | 0.00 | 84 | 1015.4 |
| 20260905185532 | 73 | 32 | 3.0 | 8.0 | 0.00 | 0.00 | 0.00 | 84 | 1015.5 |
| 20260905185056 | 73 | 20 | 3.0 | 8.0 | 0.00 | 0.00 | 0.00 | 83 | 1015.5 |
| 20260905184524 | 73 | 6 | 2.0 | 6.0 | 0.00 | 0.00 | 0.00 | 82 | 1015.5 |
| 20260905184038 | 73 | 340 | 3.0 | 7.0 | 0.00 | 0.00 | 0.00 | 81 | 1015.5 |
| 20260905183526 | 73 | 13 | 2.0 | 7.0 | 0.00 | 0.00 | 0.00 | 80 | 1015.3 |
| 20260905183028 | 74 | 20 | 3.0 | 8.0 | 0.00 | 0.00 | 0.00 | 81 | 1015.4 |
| 20260905182540 | 74 | 27 | 3.0 | 8.0 | 0.00 | 0.00 | 0.00 | 80 | 1015.4 |
| 20260905182029 | 74 | 89 | 3.0 | 7.0 | 0.00 | 0.00 | 0.00 | 80 | 1015.3 |
| 20260905181536 | 73 | 25 | 3.0 | 7.0 | 0.00 | 0.00 | 0.00 | 82 | 1015.4 |
| 20260905181047 | 73 | 350 | 3.0 | 10.0 | 0.00 | 0.00 | 0.00 | 82 | 1015.4 |
| 20260905180554 | 73 | 46 | 3.0 | 10.0 | 0.00 | 0.00 | 0.00 | 83 | 1015.3 |
| 20260905180024 | 73 | 39 | 2.0 | 8.0 | 0.00 | 0.00 | 0.00 | 83 | 1015.4 |
| 20260905175535 | 73 | 336 | 3.0 | 8.0 | 0.00 | 0.00 | 0.00 | 84 | 1015.4 |
| 20260905175026 | 73 | 321 | 3.0 | 8.0 | 0.00 | 0.00 | 0.00 | 85 | 1015.3 |
| 20260905174532 | 73 | 46 | 2.0 | 6.0 | 0.00 | 0.00 | 0.00 | 85 | 1015.2 |
| 20260905174057 | 73 | 13 | 3.0 | 6.0 | 0.00 | 0.00 | 0.00 | 85 | 1015.3 |
| 20260905173525 | 73 | 331 | 3.0 | 8.0 | 0.00 | 0.00 | 0.00 | 85 | 1015.3 |
| 20260905173036 | 73 | 44 | 3.0 | 8.0 | 0.00 | 0.00 | 0.00 | 85 | 1015.3 |
| 20260905172524 | 73 | 25 | 3.0 | 7.0 | 0.00 | 0.00 | 0.00 | 85 | 1015.3 |
| 20260905172036 | 73 | 1 | 2.0 | 6.0 | 0.00 | 0.00 | 0.00 | 86 | 1015.4 |
| 20260905171524 | 72 | 28 | 2.0 | 8.0 | 0.00 | 0.00 | 0.00 | 87 | 1015.4 |
| 20260905171032 | 73 | 46 | 2.0 | 8.0 | 0.00 | 0.00 | 0.00 | 86 | 1015.4 |
| 20260905170539 | 73 | 28 | 3.0 | 8.0 | 0.00 | 0.00 | 0.00 | 86 | 1015.3 |
| 20260905170028 | 73 | 21 | 3.0 | 8.0 | 0.00 | 0.00 | 0.00 | 87 | 1015.3 |
| 20260905165537 | 73 | 37 | 2.0 | 8.0 | 0.00 | 0.00 | 0.00 | 86 | 1015.2 |
| 20260905165029 | 73 | 72 | 3.0 | 9.0 | 0.00 | 0.00 | 0.00 | 87 | 1015.2 |
| 20260905164536 | 73 | 23 | 3.0 | 8.0 | 0.00 | 0.00 | 0.00 | 87 | 1015.2 |
| 20260905164040 | 73 | 63 | 3.0 | 6.0 | 0.00 | 0.00 | 0.00 | 88 | 1015.3 |
| 20260905163528 | 73 | 89 | 2.0 | 7.0 | 0.00 | 0.00 | 0.00 | 87 | 1015.2 |
| 20260905163040 | 73 | 40 | 2.0 | 5.0 | 0.00 | 0.00 | 0.00 | 87 | 1015.2 |
| 20260905162528 | 73 | 56 | 2.0 | 7.0 | 0.00 | 0.00 | 0.00 | 87 | 1015.2 |
| 20260905162037 | 73 | 328 | 2.0 | 7.0 | 0.00 | 0.00 | 0.00 | 86 | 1015.3 |
| 20260905161536 | 73 | 28 | 2.0 | 6.0 | 0.00 | 0.00 | 0.00 | 85 | 1015.4 |
| 20260905161027 | 73 | 314 | 3.0 | 8.0 | 0.00 | 0.00 | 0.00 | 86 | 1015.3 |
| 20260905160528 | 73 | 30 | 2.0 | 8.0 | 0.00 | 0.00 | 0.00 | 86 | 1015.2 |
| 20260905160041 | 73 | 15 | 2.0 | 8.0 | 0.00 | 0.00 | 0.00 | 85 | 1015.1 |
| 20260905155528 | 73 | 13 | 2.0 | 5.0 | 0.00 | 0.00 | 0.00 | 84 | 1015.1 |
| 20260905155035 | 73 | 53 | 2.0 | 5.0 | 0.00 | 0.00 | 0.00 | 85 | 1015.1 |
| 20260905154524 | 73 | 46 | 2.0 | 5.0 | 0.00 | 0.00 | 0.00 | 84 | 1015.1 |
| 20260905154024 | 73 | 1 | 2.0 | 7.0 | 0.00 | 0.00 | 0.00 | 84 | 1015.2 |
| 20260905153555 | 73 | 344 | 2.0 | 7.0 | 0.00 | 0.00 | 0.00 | 84 | 1015.1 |
| 20260905153050 | 73 | 8 | 2.0 | 7.0 | 0.00 | 0.00 | 0.00 | 84 | 1015.0 |
| 20260905152603 | 73 | 127 | 2.0 | 7.0 | 0.00 | 0.00 | 0.00 | 85 | 1015.1 |
| 20260905152031 | 73 | 46 | 1.0 | 5.0 | 0.00 | 0.00 | 0.00 | 84 | 1015.1 |
| 20260905151537 | 73 | 1 | 1.0 | 6.0 | 0.00 | 0.00 | 0.00 | 85 | 1015.0 |
| 20260905151029 | 73 | 340 | 2.0 | 6.0 | 0.00 | 0.00 | 0.00 | 85 | 1015.0 |
| 20260905150555 | 73 | 20 | 2.0 | 5.0 | 0.00 | 0.00 | 0.00 | 85 | 1015.0 |
| 20260905150049 | 73 | 340 | 2.0 | 5.0 | 0.00 | 0.00 | 0.00 | 85 | 1014.9 |
| 20260905145535 | 73 | 35 | 2.0 | 5.0 | 0.00 | 0.00 | 0.00 | 85 | 1014.9 |
| 20260905144526 | 73 | 28 | 1.0 | 4.0 | 0.00 | 0.00 | 0.00 | 86 | 1014.8 |
| 20260905144039 | 73 | 1 | 2.0 | 6.0 | 0.00 | 0.00 | 0.00 | 85 | 1014.8 |
| 20260905143525 | 73 | 16 | 2.0 | 7.0 | 0.00 | 0.00 | 0.00 | 86 | 1014.8 |
| 20260905143037 | 73 | 46 | 2.0 | 7.0 | 0.00 | 0.00 | 0.00 | 85 | 1014.9 |
| 20260905142547 | 73 | 98 | 2.0 | 5.0 | 0.00 | 0.00 | 0.00 | 86 | 1014.8 |
| 20260905142039 | 73 | 39 | 1.0 | 5.0 | 0.00 | 0.00 | 0.00 | 86 | 1014.7 |
| 20260905141541 | 73 | 20 | 2.0 | 6.0 | 0.00 | 0.00 | 0.00 | 86 | 1014.7 |
| 20260905141031 | 73 | 68 | 2.0 | 7.0 | 0.00 | 0.00 | 0.00 | 86 | 1014.7 |
| 20260905140537 | 72 | 89 | 3.0 | 7.0 | 0.00 | 0.00 | 0.00 | 86 | 1014.7 |
| 20260905140028 | 72 | 89 | 2.0 | 6.0 | 0.00 | 0.00 | 0.00 | 86 | 1014.7 |
| 20260905135531 | 72 | 46 | 2.0 | 6.0 | 0.00 | 0.00 | 0.00 | 86 | 1014.8 |
| 20260905135026 | 72 | 32 | 2.0 | 6.0 | 0.00 | 0.00 | 0.00 | 86 | 1014.8 |
| 20260905134535 | 72 | 76 | 2.0 | 6.0 | 0.00 | 0.00 | 0.00 | 87 | 1014.7 |
| 20260905134040 | 72 | 39 | 2.0 | 7.0 | 0.00 | 0.00 | 0.00 | 87 | 1014.6 |
| 20260905133529 | 72 | 13 | 2.0 | 7.0 | 0.00 | 0.00 | 0.00 | 87 | 1014.7 |
| 20260905133104 | 72 | 20 | 2.0 | 7.0 | 0.00 | 0.00 | 0.00 | 87 | 1014.7 |
| 20260905132530 | 71 | 105 | 2.0 | 7.0 | 0.00 | 0.00 | 0.00 | 87 | 1014.7 |
| 20260905132039 | 71 | 42 | 2.0 | 7.0 | 0.00 | 0.00 | 0.00 | 87 | 1014.6 |
| 20260905131525 | 71 | 46 | 2.0 | 9.0 | 0.00 | 0.00 | 0.00 | 87 | 1014.7 |
| 20260905131101 | 71 | 1 | 2.0 | 9.0 | 0.00 | 0.00 | 0.00 | 87 | 1014.6 |
| 20260905130530 | 71 | 105 | 2.0 | 5.0 | 0.00 | 0.00 | 0.00 | 87 | 1014.6 |
| 20260905130043 | 71 | 68 | 3.0 | 7.0 | 0.00 | 0.00 | 0.00 | 87 | 1014.5 |
| 20260905125529 | 71 | 25 | 2.0 | 7.0 | 0.00 | 0.00 | 0.00 | 87 | 1014.6 |
| 20260905125102 | 71 | 60 | 2.0 | 6.0 | 0.00 | 0.00 | 0.00 | 88 | 1014.6 |
| 20260905124554 | 71 | 108 | 2.0 | 5.0 | 0.00 | 0.00 | 0.00 | 87 | 1014.6 |
| 20260905124049 | 71 | 35 | 2.0 | 6.0 | 0.00 | 0.00 | 0.00 | 87 | 1014.5 |
| 20260905123533 | 70 | 103 | 3.0 | 5.0 | 0.00 | 0.00 | 0.00 | 88 | 1014.5 |
| 20260905123043 | 70 | 327 | 2.0 | 6.0 | 0.00 | 0.00 | 0.00 | 89 | 1014.6 |
| 20260905122531 | 70 | 1 | 1.0 | 8.0 | 0.00 | 0.00 | 0.00 | 89 | 1014.5 |
| 20260905122042 | 69 | 52 | 2.0 | 8.0 | 0.00 | 0.00 | 0.00 | 90 | 1014.4 |
| 20260905121550 | 69 | 28 | 2.0 | 7.0 | 0.00 | 0.00 | 0.00 | 90 | 1014.5 |
| 20260905121038 | 69 | 35 | 2.0 | 7.0 | 0.00 | 0.00 | 0.00 | 89 | 1014.4 |
| 20260905120553 | 69 | 110 | 2.0 | 6.0 | 0.00 | 0.00 | 0.00 | 89 | 1014.3 |
| 20260905120038 | 69 | 51 | 2.0 | 5.0 | 0.00 | 0.00 | 0.00 | 89 | 1014.4 |
| 20260905115528 | 69 | 127 | 1.0 | 6.0 | 0.00 | 0.00 | 0.00 | 89 | 1014.4 |
| 20260905115040 | 69 | 23 | 2.0 | 6.0 | 0.00 | 0.00 | 0.00 | 89 | 1014.4 |
| 20260905114528 | 69 | 46 | 2.0 | 6.0 | 0.00 | 0.00 | 0.00 | 89 | 1014.4 |
| 20260905114035 | 69 | 81 | 2.0 | 6.0 | 0.00 | 0.00 | 0.00 | 89 | 1014.4 |
| 20260905113540 | 69 | 1 | 1.0 | 6.0 | 0.00 | 0.00 | 0.00 | 88 | 1014.2 |
| 20260905113035 | 69 | 15 | 2.0 | 5.0 | 0.00 | 0.00 | 0.00 | 88 | 1014.0 |
| 20260905112523 | 69 | 100 | 1.0 | 7.0 | 0.00 | 0.00 | 0.00 | 88 | 1014.1 |
| 20260905112055 | 69 | 89 | 2.0 | 7.0 | 0.00 | 0.00 | 0.00 | 88 | 1014.1 |
| 20260905111524 | 69 | 53 | 2.0 | 7.0 | 0.00 | 0.00 | 0.00 | 88 | 1014.0 |
| 20260905111037 | 69 | 46 | 2.0 | 7.0 | 0.00 | 0.00 | 0.00 | 87 | 1014.0 |
| 20260905110541 | 69 | 89 | 2.0 | 6.0 | 0.00 | 0.00 | 0.00 | 87 | 1014.0 |
| 20260905110035 | 69 | 28 | 2.0 | 6.0 | 0.00 | 0.00 | 0.00 | 87 | 1014.1 |
| 20260905105522 | 69 | 59 | 1.0 | 6.0 | 0.00 | 0.00 | 0.00 | 87 | 1014.2 |
| 20260905105031 | 69 | 39 | 2.0 | 6.0 | 0.00 | 0.00 | 0.00 | 86 | 1014.2 |
| 20260905104539 | 69 | 35 | 1.0 | 4.0 | 0.00 | 0.00 | 0.00 | 86 | 1014.1 |
| 20260905104031 | 69 | 35 | 1.0 | 5.0 | 0.00 | 0.00 | 0.00 | 86 | 1014.1 |
| 20260905103540 | 69 | 98 | 2.0 | 8.0 | 0.00 | 0.00 | 0.00 | 86 | 1014.0 |
| 20260905103053 | 69 | 63 | 3.0 | 8.0 | 0.00 | 0.00 | 0.00 | 86 | 1014.0 |
| 20260905102541 | 69 | 98 | 2.0 | 8.0 | 0.00 | 0.00 | 0.00 | 86 | 1014.0 |
| 20260905102057 | 69 | 179 | 2.0 | 6.0 | 0.00 | 0.00 | 0.00 | 86 | 1014.1 |
| 20260905101524 | 69 | 103 | 2.0 | 9.0 | 0.00 | 0.00 | 0.00 | 85 | 1014.0 |
| 20260905101104 | 69 | 105 | 4.0 | 9.0 | 0.00 | 0.00 | 0.00 | 85 | 1013.9 |
| 20260905100530 | 69 | 28 | 3.0 | 7.0 | 0.00 | 0.00 | 0.00 | 85 | 1014.0 |
| 20260905100042 | 69 | 13 | 2.0 | 7.0 | 0.00 | 0.00 | 0.00 | 85 | 1014.0 |
| 20260905095553 | 69 | 28 | 2.0 | 7.0 | 0.00 | 0.00 | 0.00 | 85 | 1014.1 |
| 20260905095042 | 69 | 20 | 1.0 | 6.0 | 0.00 | 0.00 | 0.00 | 85 | 1014.1 |
| 20260905094036 | 69 | 13 | 2.0 | 9.0 | 0.00 | 0.00 | 0.00 | 85 | 1014.1 |
| 20260905093526 | 69 | 63 | 1.0 | 7.0 | 0.00 | 0.00 | 0.00 | 85 | 1014.1 |
| 20260905093036 | 69 | 39 | 2.0 | 6.0 | 0.00 | 0.00 | 0.00 | 85 | 1014.0 |
| 20260905092532 | 69 | 117 | 2.0 | 7.0 | 0.00 | 0.00 | 0.00 | 85 | 1014.0 |
| 20260905092042 | 69 | 51 | 3.0 | 7.0 | 0.00 | 0.00 | 0.00 | 85 | 1013.9 |
| 20260905091532 | 69 | 46 | 2.0 | 8.0 | 0.00 | 0.00 | 0.00 | 85 | 1014.0 |
| 20260905091047 | 69 | 51 | 2.0 | 8.0 | 0.00 | 0.00 | 0.00 | 85 | 1013.9 |
| 20260905090533 | 69 | 53 | 2.0 | 9.0 | 0.00 | 0.00 | 0.00 | 86 | 1013.9 |
| 20260905090026 | 69 | 89 | 2.0 | 9.0 | 0.00 | 0.00 | 0.00 | 86 | 1013.9 |
| 20260905085532 | 69 | 56 | 2.0 | 6.0 | 0.00 | 0.00 | 0.00 | 86 | 1013.9 |
| 20260905085043 | 69 | 46 | 3.0 | 6.0 | 0.00 | 0.00 | 0.00 | 86 | 1013.9 |
| 20260905084530 | 69 | 1 | 3.0 | 6.0 | 0.00 | 0.00 | 0.00 | 86 | 1013.8 |
| 20260905084025 | 69 | 56 | 2.0 | 8.0 | 0.00 | 0.00 | 0.00 | 86 | 1013.8 |
| 20260905083537 | 69 | 63 | 2.0 | 8.0 | 0.00 | 0.00 | 0.00 | 86 | 1013.9 |
| 20260905083053 | 69 | 63 | 2.0 | 6.0 | 0.00 | 0.00 | 0.00 | 86 | 1013.8 |
| 20260905082538 | 69 | 20 | 2.0 | 5.0 | 0.00 | 0.00 | 0.00 | 86 | 1013.8 |
| 20260905082031 | 69 | 28 | 2.0 | 9.0 | 0.00 | 0.00 | 0.00 | 87 | 1013.8 |
| 20260905081539 | 69 | 49 | 3.0 | 9.0 | 0.00 | 0.00 | 0.00 | 87 | 1013.8 |
| 20260905081031 | 69 | 46 | 1.0 | 9.0 | 0.00 | 0.00 | 0.00 | 87 | 1013.8 |
| 20260905080535 | 69 | 56 | 1.0 | 7.0 | 0.00 | 0.00 | 0.00 | 86 | 1013.8 |
| 20260905080038 | 69 | 74 | 2.0 | 6.0 | 0.00 | 0.00 | 0.00 | 87 | 1013.8 |
| 20260905075525 | 69 | 51 | 1.0 | 6.0 | 0.00 | 0.00 | 0.00 | 87 | 1013.7 |
| 20260905075034 | 69 | 39 | 2.0 | 6.0 | 0.00 | 0.00 | 0.00 | 87 | 1013.5 |
| 20260905074524 | 69 | 49 | 2.0 | 8.0 | 0.00 | 0.00 | 0.00 | 86 | 1013.5 |
| 20260905074034 | 69 | 76 | 2.0 | 8.0 | 0.00 | 0.00 | 0.00 | 86 | 1013.4 |
| 20260905073537 | 69 | 53 | 1.0 | 5.0 | 0.00 | 0.00 | 0.00 | 86 | 1013.3 |
| 20260905073030 | 69 | 179 | 2.0 | 4.0 | 0.00 | 0.00 | 0.00 | 85 | 1013.3 |
| 20260905072538 | 69 | 89 | 1.0 | 3.0 | 0.00 | 0.00 | 0.00 | 85 | 1013.3 |
| 20260905072052 | 69 | 35 | 1.0 | 8.0 | 0.00 | 0.00 | 0.00 | 85 | 1013.3 |
| 20260905071602 | 69 | 84 | 2.0 | 5.0 | 0.00 | 0.00 | 0.00 | 85 | 1013.4 |
| 20260905071042 | 69 | 89 | 2.0 | 6.0 | 0.00 | 0.00 | 0.00 | 86 | 1013.4 |
| 20260905070531 | 69 | 107 | 2.0 | 6.0 | 0.00 | 0.00 | 0.00 | 86 | 1013.4 |
| 20260905070038 | 69 | 28 | 2.0 | 6.0 | 0.00 | 0.00 | 0.00 | 86 | 1013.4 |
| 20260905065528 | 69 | 72 | 2.0 | 8.0 | 0.00 | 0.00 | 0.00 | 87 | 1013.4 |
| 20260905065040 | 69 | 46 | 4.0 | 8.0 | 0.00 | 0.00 | 0.00 | 88 | 1013.4 |
| 20260905064526 | 69 | 56 | 2.0 | 6.0 | 0.00 | 0.00 | 0.00 | 88 | 1013.5 |
| 20260905064037 | 69 | 46 | 1.0 | 7.0 | 0.00 | 0.00 | 0.00 | 88 | 1013.6 |
| 20260905063551 | 69 | 46 | 1.0 | 7.0 | 0.00 | 0.00 | 0.00 | 88 | 1013.6 |
| 20260905063043 | 69 | 28 | 1.0 | 6.0 | 0.00 | 0.00 | 0.00 | 89 | 1013.6 |
| 20260905062525 | 69 | 39 | 2.0 | 6.0 | 0.00 | 0.00 | 0.00 | 89 | 1013.7 |
| 20260905062037 | 69 | 63 | 1.0 | 4.0 | 0.00 | 0.00 | 0.00 | 88 | 1013.8 |
| 20260905061524 | 69 | 117 | 1.0 | 5.0 | 0.00 | 0.00 | 0.00 | 88 | 1013.8 |
| 20260905061032 | 69 | 63 | 1.0 | 5.0 | 0.00 | 0.00 | 0.00 | 88 | 1013.8 |
| 20260905060541 | 69 | 46 | 1.0 | 4.0 | 0.00 | 0.00 | 0.00 | 88 | 1013.8 |
| 20260905060042 | 69 | 46 | 0.0 | 2.0 | 0.00 | 0.00 | 0.00 | 88 | 1013.9 |